Regional Weather Roundup
Issued by NWS

Home | Current Version | Previous Version | Text Only | Print | Product List | Glossary On
Versions: 1 2 3 4 5 6 7 8 9 10 11 12 13 14 15 16 17 18 19 20 21 22 23 24 25 26 27 28 29 30 31 32 33 34 35 36 37 38 39 40 41 42 43 44 45 46 47 48
000
ASUS45 KREV 282310
RWRNV
NEVADA REGIONAL WEATHER ROUNDUP
NATIONAL WEATHER SERVICE RENO NV
400 PM PDT SAT MAR 28 2015

NOTE: "FAIR" INDICATES FEW OR NO CLOUDS BELOW 12,000 FEET WITH NO
SIGNIFICANT WEATHER AND/OR OBSTRUCTIONS TO VISIBILITY.

NVZ001-003-004-290000-
WESTERN NEVADA

CITY           SKY/WX    TMP DP  RH WIND       PRES   REMARKS
RENO           PTSUNNY   70  13  11 VRB6      30.22F
CARSON CITY    FAIR      72  14  11 NW15G22   30.21F
MINDEN         FAIR      72  16  12 N16       30.21
SLIDE MTN        N/A     43  21  42 NE7         N/A
FALLON         PTSUNNY   73  18  12 N13       30.18F
LOVELOCK       SUNNY     72  -1   5 N8G17     30.20F
HAWTHORNE      SUNNY     73  19  13 NW17G23   30.17F
$$

NVZ002-CAZ072-073-290000-
NORTHERN AND CENTRAL SIERRA

CITY           SKY/WX    TMP DP  RH WIND       PRES   REMARKS
S. LAKE TAHOE  MOSUNNY   65   9  11 VRB3      30.26F
TRUCKEE        MOSUNNY   66  18  15 NE10      30.26R
SQUAW VLY 8000   N/A     52  18  25 E1          N/A
SUSANVILLE     SUNNY     68  10  10 E3        30.23
BLUE CANYON    SUNNY     67  27  22 W8G16     30.24F
MAMMOTH LAKES  FAIR      70   3   7 W14G20    30.24S
BRIDGEPORT     FAIR      64  18  17 NE15G25   30.22S
$$

NVZ030-031-036-290000-
NORTHERN NEVADA

CITY           SKY/WX    TMP DP  RH WIND       PRES   REMARKS
ELKO           SUNNY     65  17  15 W10G20    30.22S
WINNEMUCCA     SUNNY     65  11  12 VRB3      30.24F
WENDOVER       MOSUNNY   72  19  14 NW18G25   30.11S
$$

NVZ035-037-290000-
CENTRAL NEVADA

CITY           SKY/WX    TMP DP  RH WIND       PRES   REMARKS
ELY            SUNNY     70   5   8 W14       30.19F
EUREKA           N/A     70   1   6 NW12      30.20F
$$

NVZ013-014-290000-
SOUTH CENTRAL NEVADA

CITY           SKY/WX    TMP DP  RH WIND       PRES   REMARKS
TONOPAH        SUNNY     75   4   6 NW12G22   30.17F
$$

NVZ017-020-022-290000-
SOUTHERN NEVADA

CITY           SKY/WX    TMP DP  RH WIND       PRES   REMARKS
LAS VEGAS      SUNNY     90  13   6 S15       29.93F
N. LAS VEGAS   SUNNY     90  13   6 S8        29.96F
NELLIS AFB     SUNNY     89  21   8 SW7       29.94F
HENDERSON      SUNNY     89  20   8 W13       30.00F
MERCURY        SUNNY     84  15   7 SW12G25   30.04F
$$


USA.gov is the U.S. government's official web portal to all federal, state and local government web resources and services.